Location: Newark
(15.4608°S, 41.1635°W)
Time: 00:44:23
(UTC+00:00)

N. Korean satellite - Pass Details

Date: 26 June 2021
Orbit: 451 x 498 km, 97.2° (Epoch: 30 July)

Event Time Altitude Azimuth Distance (km) Brightness Sun altitude
Rises 06:42:37 0° 47° (NE) 2,575 11.1 -34.4°
Reaches altitude 10° 06:45:31 10° 73° (ENE) 1,698 10.1 -33.7°
Enters shadow 06:46:53 13° 95° (E) 1,495 9.7 -33.4°
